sat.trackr.live / text

‹ back to catalog

QIANFAN-62

NORAD 62792 · 2025-016H

PAYLOAD ACTIVE UNKNOWN

§ Identity

Operator
Country
PRC
Launch date
2025-01-23
Launch site
TAISC
Launch vehicle
Mass (kg)
RCS (m²)

External: N2YO · Heavens-Above · Gunter

§ Orbital elements

Epoch: 2026-09-22T22:08:14.936640Z

Period
106.59 min
Inclination
88.9667°
Eccentricity
0.0014501
Mean motion
13.51027261 rev/d
Perigee alt
1,057.7 km
Apogee alt
1,079.3 km
Semi-major
7,446.6 km
B*
5.4338e-5
RAAN
73.5812°
Arg perigee
238.7526°
Mean anomaly
121.2205°
Rev number
8,560

§ Raw data

QIANFAN-621 62792U 25016H   26265.92239510  .00000047  00000+0  54338-4 0  99992 62792  88.9667  73.5812 0014501 238.7526 121.2205 13.51027261 85602

JSON: /api/v1/satellites/62792 · /tle

For live sub-satellite position, see the globe view (requires WebGL).

§ Visibility from observer

Set your observer location to see the next 7 days of passes ≥ 10°. The values pass through the URL so the page stays shareable.

No JS? Fill the form by hand. The geolocation button needs JavaScript.